RYR292K LFBO-EIDW

Flight info

Callsign RYR292K
Flight time 1h 42m
Altitude 34000
Route LACOU DCT CHALA DCT CNA DCT MANAK/N0420F320 UY110 TIRAV/N0445F380 UT183 BAGAD DCT TERKU DCT DOLUR DCT UPCAB DCT IJALA DCT EVRIN DCT BUNED BUNED4L
Aircraft B738/M-SDE2E3FGHIRWXY/LB1

Departure

Time 2026-05-07 15:46
Airport Toulouse-Blagnac Airport (LFBO)

Arrival

Time 2026-05-07 17:29
Airport Dublin Airport (EIDW)
Time Latitude Longitude Altitude Speed Heading
2026-05-07 15:11 43.63306 1.36958 493 ft 0 kts 130°
2026-05-07 15:36 43.63308 1.36955 485 ft 2 kts 130°
2026-05-07 15:36 43.63319 1.36935 490 ft 3 kts 130°
2026-05-07 15:36 43.63328 1.36922 502 ft 0 kts 130°
2026-05-07 15:37 43.63328 1.36921 503 ft 0 kts 130°
2026-05-07 15:40 43.63324 1.36921 493 ft 1 kts 173°
2026-05-07 15:40 43.63322 1.36912 483 ft 1 kts 258°
2026-05-07 15:41 43.63333 1.36892 493 ft 5 kts 312°
2026-05-07 15:41 43.63344 1.36828 490 ft 9 kts 242°
2026-05-07 15:41 43.63309 1.36758 484 ft 10 kts 235°
2026-05-07 15:41 43.63271 1.36669 488 ft 11 kts 239°
2026-05-07 15:42 43.63207 1.36628 493 ft 11 kts 158°
2026-05-07 15:42 43.63135 1.36696 487 ft 15 kts 144°
2026-05-07 15:42 43.63038 1.36800 493 ft 20 kts 142°
2026-05-07 15:42 43.62911 1.36931 493 ft 25 kts 143°
2026-05-07 15:43 43.62765 1.37083 489 ft 26 kts 142°
2026-05-07 15:43 43.62627 1.37227 489 ft 24 kts 144°
2026-05-07 15:43 43.62498 1.37362 486 ft 23 kts 143°
2026-05-07 15:43 43.62371 1.37493 493 ft 23 kts 143°
2026-05-07 15:44 43.62235 1.37634 493 ft 25 kts 143°
2026-05-07 15:44 43.62094 1.37781 493 ft 25 kts 142°
2026-05-07 15:44 43.61962 1.37919 489 ft 23 kts 143°
2026-05-07 15:44 43.61828 1.38056 493 ft 23 kts 143°
2026-05-07 15:45 43.61721 1.38163 490 ft 16 kts 155°
2026-05-07 15:45 43.61641 1.38140 493 ft 12 kts 233°
2026-05-07 15:45 43.61592 1.38045 493 ft 11 kts 234°
2026-05-07 15:45 43.61619 1.37965 489 ft 14 kts 324°
2026-05-07 15:46 43.62520 1.37028 489 ft 147 kts 324°
2026-05-07 15:46 43.63408 1.36090 938 ft 165 kts 324°
2026-05-07 15:46 43.64329 1.35105 1629 ft 173 kts 322°
2026-05-07 15:47 43.65320 1.34026 2127 ft 196 kts 322°
2026-05-07 15:47 43.66462 1.32777 2486 ft 218 kts 323°
2026-05-07 15:47 43.67687 1.31409 3053 ft 230 kts 322°
2026-05-07 15:47 43.68954 1.30014 3842 ft 240 kts 323°
2026-05-07 15:48 43.70339 1.28494 4282 ft 264 kts 322°
2026-05-07 15:48 43.71814 1.26965 5262 ft 264 kts 332°
2026-05-07 15:48 43.73530 1.26186 6334 ft 261 kts 345°
2026-05-07 15:48 43.75245 1.25246 6955 ft 270 kts 332°
2026-05-07 15:49 43.76919 1.24043 7796 ft 272 kts 332°
2026-05-07 15:49 43.78607 1.22840 8705 ft 276 kts 331°
2026-05-07 15:49 43.80338 1.21619 9468 ft 284 kts 331°
2026-05-07 15:49 43.82122 1.20372 10206 ft 291 kts 331°
2026-05-07 15:50 43.83999 1.19068 10543 ft 314 kts 332°
2026-05-07 15:50 43.86029 1.17665 10772 ft 338 kts 332°
2026-05-07 15:50 43.88175 1.16192 11333 ft 349 kts 332°
2026-05-07 15:50 43.90363 1.14695 12100 ft 353 kts 332°
2026-05-07 15:51 43.92578 1.13184 12913 ft 357 kts 332°
2026-05-07 15:51 43.94824 1.11652 13662 ft 362 kts 332°
2026-05-07 15:51 43.97075 1.10025 14313 ft 367 kts 329°
2026-05-07 15:51 43.99294 1.08258 15016 ft 370 kts 327°
2026-05-07 15:52 44.01517 1.06431 15743 ft 373 kts 327°
2026-05-07 15:52 44.03756 1.04577 16432 ft 376 kts 327°
2026-05-07 15:52 44.06021 1.02709 17110 ft 380 kts 327°
2026-05-07 15:52 44.08307 1.00831 17806 ft 383 kts 327°
2026-05-07 15:53 44.10615 0.98942 18466 ft 387 kts 327°
2026-05-07 15:53 44.12156 0.97685 18848 ft 389 kts 327°
2026-05-07 15:53 44.15275 0.95144 19610 ft 394 kts 327°
2026-05-07 15:53 44.16874 0.93841 19996 ft 396 kts 327°
2026-05-07 15:54 44.20048 0.91257 20744 ft 401 kts 327°
2026-05-07 15:54 44.21680 0.89927 21114 ft 404 kts 327°
2026-05-07 15:54 44.24883 0.87315 21842 ft 408 kts 327°
2026-05-07 15:54 44.26545 0.85958 22191 ft 411 kts 327°
2026-05-07 15:55 44.29019 0.83937 22724 ft 414 kts 327°
2026-05-07 15:55 44.31519 0.81893 23259 ft 418 kts 327°
2026-05-07 15:55 44.34035 0.79833 23713 ft 422 kts 327°
2026-05-07 15:55 44.36541 0.77780 24151 ft 424 kts 327°
2026-05-07 15:56 44.39095 0.75685 24581 ft 427 kts 327°
2026-05-07 15:56 44.41670 0.73571 24973 ft 431 kts 327°
2026-05-07 15:56 44.44260 0.71443 25389 ft 434 kts 326°
2026-05-07 15:56 44.46867 0.69298 25798 ft 436 kts 326°
2026-05-07 15:57 44.49493 0.67134 26183 ft 439 kts 326°
2026-05-07 15:57 44.52135 0.64956 26563 ft 442 kts 326°
2026-05-07 15:57 44.54801 0.62756 26943 ft 445 kts 326°
2026-05-07 15:57 44.57475 0.60547 27317 ft 448 kts 326°
2026-05-07 15:58 44.60166 0.58320 27676 ft 451 kts 326°
2026-05-07 15:58 44.62876 0.56076 28047 ft 453 kts 326°
2026-05-07 15:58 44.65596 0.53821 28420 ft 455 kts 326°
2026-05-07 15:58 44.68328 0.51555 28759 ft 458 kts 326°
2026-05-07 15:59 44.71077 0.49270 29092 ft 460 kts 326°
2026-05-07 15:59 44.73838 0.46974 29411 ft 463 kts 326°
2026-05-07 15:59 44.76618 0.44658 29719 ft 465 kts 326°
2026-05-07 15:59 44.79403 0.42337 30028 ft 468 kts 326°
2026-05-07 16:00 44.82211 0.39993 30287 ft 470 kts 326°
2026-05-07 16:00 44.85032 0.37637 30612 ft 470 kts 326°
2026-05-07 16:00 44.87845 0.35285 30976 ft 470 kts 326°
2026-05-07 16:00 44.90648 0.32939 31367 ft 468 kts 325°
2026-05-07 16:01 44.93442 0.30598 31743 ft 467 kts 325°
2026-05-07 16:01 44.96233 0.28256 32086 ft 467 kts 325°
2026-05-07 16:01 44.99032 0.25904 32426 ft 467 kts 325°
2026-05-07 16:01 45.01811 0.23566 32802 ft 465 kts 325°
2026-05-07 16:02 45.04588 0.21227 33173 ft 464 kts 325°
2026-05-07 16:02 45.07362 0.18887 33498 ft 464 kts 324°
2026-05-07 16:02 45.10040 0.16383 33792 ft 462 kts 320°
2026-05-07 16:02 45.12618 0.13685 34091 ft 460 kts 318°
2026-05-07 16:03 45.15149 0.10915 34386 ft 458 kts 317°
2026-05-07 16:03 45.17657 0.08135 34672 ft 458 kts 317°
2026-05-07 16:03 45.20171 0.05355 34941 ft 458 kts 317°
2026-05-07 16:03 45.22682 0.02601 35251 ft 456 kts 318°
2026-05-07 16:04 45.25199 -0.00139 35539 ft 455 kts 318°
2026-05-07 16:04 45.27720 -0.02869 35746 ft 457 kts 318°
2026-05-07 16:04 45.30253 -0.05606 35929 ft 458 kts 318°
2026-05-07 16:04 45.32788 -0.08342 36200 ft 457 kts 318°
2026-05-07 16:05 45.35316 -0.11068 36517 ft 455 kts 319°
2026-05-07 16:05 45.37831 -0.13785 36783 ft 455 kts 318°
2026-05-07 16:05 45.40350 -0.16509 36978 ft 455 kts 318°
2026-05-07 16:05 45.42869 -0.19238 37199 ft 455 kts 318°
2026-05-07 16:06 45.45391 -0.21975 37451 ft 454 kts 318°
2026-05-07 16:06 45.47893 -0.24692 37684 ft 453 kts 318°
2026-05-07 16:06 45.50398 -0.27416 37886 ft 453 kts 318°
2026-05-07 16:07 45.55442 -0.32913 37937 ft 457 kts 318°
2026-05-07 16:07 45.60472 -0.38404 37943 ft 453 kts 318°
2026-05-07 16:08 45.65468 -0.43869 37940 ft 450 kts 318°
2026-05-07 16:08 45.70414 -0.49295 37966 ft 448 kts 318°
2026-05-07 16:09 45.75355 -0.54729 37956 ft 448 kts 318°
2026-05-07 16:09 45.80288 -0.60167 37961 ft 447 kts 318°
2026-05-07 16:10 45.85214 -0.65608 37956 ft 447 kts 318°
2026-05-07 16:10 45.90144 -0.71066 37959 ft 448 kts 318°
2026-05-07 16:11 45.95046 -0.76506 37963 ft 449 kts 318°
2026-05-07 16:11 45.99992 -0.82008 37971 ft 451 kts 318°
2026-05-07 16:12 46.04957 -0.87542 37968 ft 453 kts 318°
2026-05-07 16:12 46.09948 -0.93119 37959 ft 454 kts 318°
2026-05-07 16:13 46.14951 -0.98723 37976 ft 456 kts 318°
2026-05-07 16:13 46.19962 -1.04347 37972 ft 457 kts 318°
2026-05-07 16:14 46.24978 -1.09992 37967 ft 458 kts 318°
2026-05-07 16:14 46.29997 -1.15653 37966 ft 458 kts 318°
2026-05-07 16:15 46.35016 -1.21328 37970 ft 458 kts 318°
2026-05-07 16:15 46.40032 -1.27014 37972 ft 457 kts 318°
2026-05-07 16:16 46.45037 -1.32699 37968 ft 456 kts 318°
2026-05-07 16:16 46.50018 -1.38372 37966 ft 455 kts 318°
2026-05-07 16:17 46.54973 -1.44028 37968 ft 453 kts 318°
2026-05-07 16:17 46.59914 -1.49683 37971 ft 452 kts 318°
2026-05-07 16:18 46.64839 -1.55332 37963 ft 451 kts 318°
2026-05-07 16:18 46.69750 -1.60979 37964 ft 450 kts 318°
2026-05-07 16:19 46.74655 -1.66633 37974 ft 450 kts 318°
2026-05-07 16:19 46.79508 -1.72240 37974 ft 450 kts 318°
2026-05-07 16:20 46.84408 -1.77915 37974 ft 450 kts 318°
2026-05-07 16:20 46.89316 -1.83612 37970 ft 450 kts 318°
2026-05-07 16:21 46.94217 -1.89316 37978 ft 451 kts 317°
2026-05-07 16:21 46.99127 -1.95043 37973 ft 452 kts 318°
2026-05-07 16:22 47.04040 -2.00789 37977 ft 453 kts 318°
2026-05-07 16:22 47.08959 -2.06554 37993 ft 454 kts 318°
2026-05-07 16:23 47.13892 -2.12350 37968 ft 455 kts 318°
2026-05-07 16:23 47.18833 -2.18170 37969 ft 455 kts 318°
2026-05-07 16:24 47.23774 -2.24004 37969 ft 456 kts 318°
2026-05-07 16:24 47.28707 -2.29843 37966 ft 456 kts 318°
2026-05-07 16:25 47.33641 -2.35698 37969 ft 455 kts 317°
2026-05-07 16:25 47.38559 -2.41547 37977 ft 455 kts 317°
2026-05-07 16:26 47.43476 -2.47411 37969 ft 455 kts 317°
2026-05-07 16:26 47.48393 -2.53289 37979 ft 454 kts 317°
2026-05-07 16:27 47.53295 -2.59164 37971 ft 454 kts 317°
2026-05-07 16:27 47.58188 -2.65042 37968 ft 453 kts 317°
2026-05-07 16:28 47.63028 -2.70872 37966 ft 452 kts 317°
2026-05-07 16:28 47.67933 -2.76794 37968 ft 451 kts 317°
2026-05-07 16:29 47.72798 -2.82681 37973 ft 451 kts 317°
2026-05-07 16:29 47.77621 -2.88533 37987 ft 450 kts 317°
2026-05-07 16:30 47.82473 -2.94436 37975 ft 451 kts 317°
2026-05-07 16:30 47.87324 -3.00351 37974 ft 451 kts 317°
2026-05-07 16:31 47.92173 -3.06280 37973 ft 451 kts 317°
2026-05-07 16:31 47.97017 -3.12216 37975 ft 451 kts 317°
2026-05-07 16:32 48.01861 -3.18168 37975 ft 451 kts 317°
2026-05-07 16:32 48.06704 -3.24133 37974 ft 451 kts 317°
2026-05-07 16:33 48.11547 -3.30113 37972 ft 451 kts 317°
2026-05-07 16:33 48.16386 -3.36104 37974 ft 452 kts 317°
2026-05-07 16:34 48.21224 -3.42108 37972 ft 452 kts 317°
2026-05-07 16:34 48.26067 -3.48134 37975 ft 452 kts 317°
2026-05-07 16:35 48.30899 -3.54161 37978 ft 452 kts 317°
2026-05-07 16:35 48.35722 -3.60193 37974 ft 452 kts 317°
2026-05-07 16:36 48.40557 -3.66256 37990 ft 453 kts 317°
2026-05-07 16:36 48.45392 -3.72334 37962 ft 453 kts 317°
2026-05-07 16:37 48.50225 -3.78424 37977 ft 453 kts 317°
2026-05-07 16:37 48.55056 -3.84526 37967 ft 452 kts 317°
2026-05-07 16:38 48.59871 -3.90626 37981 ft 452 kts 317°
2026-05-07 16:38 48.64657 -3.96704 37968 ft 452 kts 317°
2026-05-07 16:39 48.69469 -4.02832 37974 ft 453 kts 317°
2026-05-07 16:39 48.74281 -4.08975 37994 ft 452 kts 317°
2026-05-07 16:40 48.79085 -4.15124 37980 ft 451 kts 317°
2026-05-07 16:40 48.83876 -4.21271 37988 ft 451 kts 317°
2026-05-07 16:41 48.87885 -4.26428 37992 ft 451 kts 317°
2026-05-07 16:41 48.92631 -4.32548 37988 ft 450 kts 317°
2026-05-07 16:42 48.97435 -4.38757 37986 ft 450 kts 317°
2026-05-07 16:42 49.02175 -4.44902 37985 ft 450 kts 316°
2026-05-07 16:43 49.06967 -4.51128 37990 ft 450 kts 316°
2026-05-07 16:43 49.11687 -4.57277 37992 ft 449 kts 316°
2026-05-07 16:44 49.16464 -4.63518 37989 ft 449 kts 316°
2026-05-07 16:44 49.21171 -4.69682 38000 ft 448 kts 316°
2026-05-07 16:45 49.25909 -4.75905 37986 ft 449 kts 316°
2026-05-07 16:45 49.30643 -4.82138 37999 ft 448 kts 316°
2026-05-07 16:46 49.35368 -4.88377 37983 ft 449 kts 316°
2026-05-07 16:46 49.40095 -4.94634 37996 ft 449 kts 316°
2026-05-07 16:47 49.44815 -5.00896 37998 ft 449 kts 316°
2026-05-07 16:47 49.49678 -5.06945 37984 ft 453 kts 326°
2026-05-07 16:48 49.55158 -5.11731 37993 ft 454 kts 328°
2026-05-07 16:48 49.60704 -5.16401 37995 ft 454 kts 328°
2026-05-07 16:49 49.66237 -5.21134 38003 ft 455 kts 328°
2026-05-07 16:49 49.71755 -5.25921 37986 ft 455 kts 328°
2026-05-07 16:50 49.77273 -5.30738 37984 ft 456 kts 328°
2026-05-07 16:50 49.82758 -5.35541 37987 ft 456 kts 328°
2026-05-07 16:51 49.88275 -5.40383 37986 ft 456 kts 328°
2026-05-07 16:51 49.93830 -5.45270 37992 ft 456 kts 328°
2026-05-07 16:52 49.99313 -5.50106 37996 ft 456 kts 327°
2026-05-07 16:52 50.04838 -5.54992 37991 ft 456 kts 327°
2026-05-07 16:53 50.10357 -5.59886 37994 ft 456 kts 327°
2026-05-07 16:53 50.15872 -5.64790 37994 ft 456 kts 327°
2026-05-07 16:54 50.21381 -5.69700 37992 ft 456 kts 327°
2026-05-07 16:54 50.26888 -5.74623 37995 ft 455 kts 327°
2026-05-07 16:55 50.32455 -5.79355 37991 ft 457 kts 333°
2026-05-07 16:55 50.38322 -5.83195 37998 ft 458 kts 335°
2026-05-07 16:56 50.44239 -5.86904 37999 ft 458 kts 335°
2026-05-07 16:56 50.53068 -5.92626 38008 ft 458 kts 335°
2026-05-07 16:57 50.58941 -5.96507 38008 ft 458 kts 334°
2026-05-07 16:57 50.64812 -6.00402 38007 ft 458 kts 334°
2026-05-07 16:58 50.70687 -6.04308 38008 ft 458 kts 334°
2026-05-07 16:58 50.76526 -6.08198 38015 ft 459 kts 334°
2026-05-07 16:59 50.82441 -6.12149 38011 ft 459 kts 334°
2026-05-07 16:59 50.88289 -6.16066 38016 ft 459 kts 334°
2026-05-07 17:00 50.94174 -6.20020 38002 ft 459 kts 334°
2026-05-07 17:00 51.00093 -6.24006 38007 ft 459 kts 334°
2026-05-07 17:01 51.05965 -6.27972 38006 ft 459 kts 334°
2026-05-07 17:01 51.11800 -6.31924 37997 ft 459 kts 334°
2026-05-07 17:02 51.17664 -6.35907 38013 ft 459 kts 334°
2026-05-07 17:02 51.23534 -6.39905 38005 ft 459 kts 334°
2026-05-07 17:03 51.29490 -6.43572 37995 ft 461 kts 344°
2026-05-07 17:03 51.35826 -6.45319 37999 ft 463 kts 349°
2026-05-07 17:04 51.42196 -6.46844 38006 ft 463 kts 349°
2026-05-07 17:04 51.48603 -6.48468 37776 ft 466 kts 348°
2026-05-07 17:05 51.51776 -6.49300 37284 ft 467 kts 348°
2026-05-07 17:05 51.54976 -6.50145 36711 ft 465 kts 348°
2026-05-07 17:05 51.58168 -6.50990 36152 ft 464 kts 348°
2026-05-07 17:05 51.61352 -6.51835 35555 ft 464 kts 348°
2026-05-07 17:06 51.64539 -6.52681 34933 ft 465 kts 348°
2026-05-07 17:06 51.67736 -6.53529 34303 ft 466 kts 349°
2026-05-07 17:06 51.70928 -6.54377 33826 ft 463 kts 349°
2026-05-07 17:06 51.74081 -6.55214 33304 ft 460 kts 349°
2026-05-07 17:07 51.77237 -6.56054 32847 ft 455 kts 349°
2026-05-07 17:07 51.80367 -6.56677 32412 ft 451 kts 354°
2026-05-07 17:07 51.83485 -6.56906 31986 ft 448 kts
2026-05-07 17:07 51.86553 -6.56335 31525 ft 446 kts 11°
2026-05-07 17:08 51.89541 -6.54935 31048 ft 444 kts 21°
2026-05-07 17:08 51.92391 -6.53040 30612 ft 441 kts 22°
2026-05-07 17:08 51.95205 -6.51089 30164 ft 439 kts 23°
2026-05-07 17:08 51.97998 -6.49135 29668 ft 436 kts 23°
2026-05-07 17:09 52.00774 -6.47202 29191 ft 432 kts 23°
2026-05-07 17:09 52.03524 -6.45302 28715 ft 429 kts 22°
2026-05-07 17:09 52.06264 -6.43422 28225 ft 425 kts 22°
2026-05-07 17:09 52.08976 -6.41569 27750 ft 422 kts 22°
2026-05-07 17:10 52.11680 -6.39726 27282 ft 419 kts 22°
2026-05-07 17:10 52.14364 -6.37897 26829 ft 417 kts 22°
2026-05-07 17:10 52.17032 -6.36077 26383 ft 414 kts 22°
2026-05-07 17:10 52.19675 -6.34272 25942 ft 411 kts 22°
2026-05-07 17:11 52.22258 -6.32506 25509 ft 408 kts 22°
2026-05-07 17:11 52.24914 -6.30688 25078 ft 406 kts 22°
2026-05-07 17:11 52.27512 -6.28906 24659 ft 403 kts 22°
2026-05-07 17:11 52.30053 -6.27161 24255 ft 401 kts 22°
2026-05-07 17:12 52.32631 -6.25389 23554 ft 406 kts 22°
2026-05-07 17:12 52.35270 -6.23574 22269 ft 423 kts 22°
2026-05-07 17:12 52.38021 -6.21680 21394 ft 428 kts 22°
2026-05-07 17:12 52.40753 -6.19793 20789 ft 425 kts 22°
2026-05-07 17:13 52.43488 -6.17902 19984 ft 427 kts 22°
2026-05-07 17:13 52.46221 -6.16009 19339 ft 426 kts 22°
2026-05-07 17:13 52.48940 -6.14124 18808 ft 421 kts 22°
2026-05-07 17:13 52.51620 -6.12263 18300 ft 416 kts 21°
2026-05-07 17:14 52.54270 -6.10421 17680 ft 412 kts 22°
2026-05-07 17:14 52.56903 -6.08589 17084 ft 409 kts 22°
2026-05-07 17:14 52.59506 -6.06775 16511 ft 405 kts 22°
2026-05-07 17:14 52.62088 -6.04974 15930 ft 401 kts 21°
2026-05-07 17:15 52.64655 -6.03181 15267 ft 401 kts 22°
2026-05-07 17:15 52.67213 -6.01392 14777 ft 396 kts 21°
2026-05-07 17:15 52.69734 -5.99626 14209 ft 393 kts 22°
2026-05-07 17:15 52.72246 -5.97865 13677 ft 391 kts 22°
2026-05-07 17:16 52.74710 -5.96134 12905 ft 381 kts 22°
2026-05-07 17:16 52.77119 -5.94440 12320 ft 370 kts 22°
2026-05-07 17:16 52.79418 -5.92820 12144 ft 352 kts 21°
2026-05-07 17:16 52.81635 -5.91257 12002 ft 341 kts 22°
2026-05-07 17:17 52.83794 -5.89805 11952 ft 329 kts 15°
2026-05-07 17:17 52.85976 -5.89175 11893 ft 314 kts
2026-05-07 17:17 52.88129 -5.89243 11639 ft 304 kts 354°
2026-05-07 17:17 52.90218 -5.89459 11167 ft 302 kts 354°
2026-05-07 17:18 52.92305 -5.89703 10720 ft 298 kts 352°
2026-05-07 17:18 52.94355 -5.89943 10314 ft 293 kts 354°
2026-05-07 17:18 52.96374 -5.90169 9850 ft 290 kts 352°
2026-05-07 17:18 52.98384 -5.90389 9305 ft 289 kts 352°
2026-05-07 17:19 53.00397 -5.90602 8728 ft 290 kts 353°
2026-05-07 17:19 53.02404 -5.90806 8346 ft 288 kts 354°
2026-05-07 17:19 53.04394 -5.91004 8147 ft 283 kts 355°
2026-05-07 17:19 53.06329 -5.91193 8067 ft 275 kts 353°
2026-05-07 17:20 53.08210 -5.91379 7977 ft 267 kts 354°
2026-05-07 17:20 53.10017 -5.91560 7674 ft 263 kts 354°
2026-05-07 17:20 53.11871 -5.91744 7233 ft 263 kts 353°
2026-05-07 17:20 53.13699 -5.91927 6816 ft 263 kts 354°
2026-05-07 17:21 53.15489 -5.92103 6403 ft 263 kts 353°
2026-05-07 17:21 53.17317 -5.92282 6075 ft 263 kts 354°
2026-05-07 17:21 53.19133 -5.92461 5833 ft 261 kts 353°
2026-05-07 17:21 53.20956 -5.92642 5496 ft 263 kts 353°
2026-05-07 17:22 53.22789 -5.92825 5168 ft 265 kts 354°
2026-05-07 17:22 53.24634 -5.93008 4836 ft 267 kts 354°
2026-05-07 17:22 53.26483 -5.93190 4514 ft 264 kts 353°
2026-05-07 17:22 53.28276 -5.93363 4302 ft 254 kts 353°
2026-05-07 17:23 53.30012 -5.93533 4079 ft 246 kts 353°
2026-05-07 17:23 53.31704 -5.93701 3863 ft 240 kts 353°
2026-05-07 17:23 53.33344 -5.93863 3682 ft 232 kts 353°
2026-05-07 17:23 53.34946 -5.94022 3572 ft 228 kts 353°
2026-05-07 17:24 53.36489 -5.94174 3509 ft 216 kts 353°
2026-05-07 17:24 53.37949 -5.94318 3426 ft 207 kts 353°
2026-05-07 17:24 53.39370 -5.94577 3345 ft 199 kts 335°
2026-05-07 17:24 53.40325 -5.95932 3205 ft 171 kts 284°
2026-05-07 17:25 53.40476 -5.97818 3145 ft 167 kts 272°
2026-05-07 17:25 53.40691 -5.99774 3040 ft 171 kts 273°
2026-05-07 17:25 53.40813 -6.01732 2973 ft 169 kts 269°
2026-05-07 17:25 53.40909 -6.03731 2745 ft 173 kts 270°
2026-05-07 17:26 53.41009 -6.05731 2522 ft 172 kts 270°
2026-05-07 17:26 53.41112 -6.07704 2285 ft 168 kts 269°
2026-05-07 17:26 53.41212 -6.09620 2053 ft 162 kts 269°
2026-05-07 17:26 53.41309 -6.11473 1843 ft 157 kts 268°
2026-05-07 17:27 53.41403 -6.13252 1638 ft 150 kts 268°
2026-05-07 17:27 53.41492 -6.14912 1456 ft 139 kts 267°
2026-05-07 17:27 53.41574 -6.16513 1258 ft 138 kts 267°
2026-05-07 17:27 53.41659 -6.18124 1068 ft 139 kts 267°
2026-05-07 17:28 53.41715 -6.19188 918 ft 139 kts 269°
2026-05-07 17:28 53.41797 -6.20863 754 ft 147 kts 270°
2026-05-07 17:28 53.41895 -6.22575 540 ft 148 kts 271°
2026-05-07 17:28 53.41990 -6.24307 332 ft 151 kts 271°
2026-05-07 17:29 53.42081 -6.26052 211 ft 142 kts 276°
2026-05-07 17:29 53.42146 -6.27251 209 ft 58 kts 275°
2026-05-07 17:29 53.42196 -6.27823 215 ft 42 kts 291°
2026-05-07 17:29 53.42276 -6.28069 213 ft 16 kts 300°
2026-05-07 17:30 53.42352 -6.28103 219 ft 14 kts 59°
2026-05-07 17:30 53.42356 -6.27941 210 ft 15 kts 96°
2026-05-07 17:30 53.42345 -6.27748 210 ft 18 kts 96°
2026-05-07 17:30 53.42331 -6.27515 210 ft 21 kts 96°
2026-05-07 17:31 53.42320 -6.27272 215 ft 21 kts 94°
2026-05-07 17:31 53.42305 -6.27026 215 ft 22 kts 96°
2026-05-07 17:31 53.42289 -6.26756 210 ft 23 kts 96°
2026-05-07 17:31 53.42275 -6.26492 217 ft 22 kts 95°
2026-05-07 17:32 53.42267 -6.26236 213 ft 22 kts 82°
2026-05-07 17:32 53.42341 -6.26024 215 ft 21 kts 46°
2026-05-07 17:32 53.42442 -6.25850 217 ft 21 kts 45°
2026-05-07 17:32 53.42541 -6.25683 210 ft 20 kts 44°
2026-05-07 17:33 53.42636 -6.25523 214 ft 17 kts 46°
2026-05-07 17:33 53.42703 -6.25479 211 ft 12 kts 341°
2026-05-07 17:33 53.42816 -6.25557 212 ft 23 kts 337°
2026-05-07 17:33 53.42979 -6.25674 214 ft 25 kts 336°
2026-05-07 17:34 53.43082 -6.25748 215 ft 9 kts 345°
2026-05-07 17:34 53.43131 -6.25692 210 ft 10 kts 67°
2026-05-07 17:34 53.43162 -6.25560 214 ft 15 kts 76°
2026-05-07 17:34 53.43189 -6.25379 213 ft 16 kts 65°
2026-05-07 17:35 53.43208 -6.25220 213 ft 14 kts 94°
2026-05-07 17:35 53.43201 -6.25066 216 ft 13 kts 95°
2026-05-07 17:35 53.43192 -6.24918 210 ft 13 kts 95°
2026-05-07 17:35 53.43176 -6.24823 212 ft 6 kts 158°
2026-05-07 17:36 53.43133 -6.24824 210 ft 6 kts 186°
2026-05-07 17:36 53.43104 -6.24829 210 ft 1 kts 185°
2026-05-07 17:36 53.43102 -6.24829 210 ft 0 kts 185°